• In Deutschland
  • Länderverzeichnis
  • Für 7 Tage
  • Wassertemperatur
  • Satellitenkarten
  • Wetterkarte
  • Widgets
  • user-avatar
    Anmelden

    Stündliche Wetter Warstein

    Heute, 19 Oktober, Donnerstag

    Zeit Temperatur Niederschläge Wind Luftdruck Luftfeuchtigkeit
    00:00 +11°C° 0 mm 1 m/S 726 mmHg 89%
    01:00 +11°C° 0 mm 1 m/S 726 mmHg 90%
    02:00 +11°C° 0 mm 1 m/S 726 mmHg 90%
    03:00 +11°C° 0 mm 1 m/S 726 mmHg 91%
    04:00 +11°C° 0 mm 1 m/S 726 mmHg 91%
    05:00 +11°C° 0 mm 1 m/S 726 mmHg 91%
    06:00 +11°C° 0 mm 1 m/S 726 mmHg 90%
    07:00 +10°C° 0 mm 1 m/S 726 mmHg 88%
    08:00 +12°C° 0 mm 1 m/S 726 mmHg 82%
    09:00 +14°C° 0 mm 2 m/S 726 mmHg 76%
    10:00 +15°C° 0 mm 2 m/S 726 mmHg 69%
    11:00 +17°C° 0 mm 2 m/S 726 mmHg 66%
    12:00 +18°C° 0 mm 3 m/S 726 mmHg 62%
    13:00 +19°C° 0 mm 3 m/S 726 mmHg 59%
    14:00 +19°C° 0 mm 3 m/S 725 mmHg 62%
    15:00 +18°C° 0 mm 3 m/S 725 mmHg 65%
    16:00 +18°C° 0 mm 2 m/S 725 mmHg 68%
    17:00 +17°C° 0 mm 2 m/S 725 mmHg 73%
    18:00 +15°C° 0 mm 2 m/S 725 mmHg 77%
    19:00 +14°C° 0 mm 2 m/S 725 mmHg 82%
    20:00 +14°C° 0 mm 2 m/S 725 mmHg 81%
    21:00 +14°C° 0 mm 2 m/S 725 mmHg 80%
    22:00 +14°C° 0 mm 2 m/S 725 mmHg 80%
    23:00 +13°C° 0 mm 2 m/S 725 mmHg 79%

    Morgen, 20 Oktober, Freitag

    Zeit Temperatur Niederschläge Wind Luftdruck Luftfeuchtigkeit
    00:00 +13°C° 0 mm 2 m/S 725 mmHg 77%
    01:00 +13°C° 0 mm 2 m/S 725 mmHg 76%
    02:00 +14°C° 0 mm 2 m/S 725 mmHg 74%
    03:00 +13°C° 0 mm 3 m/S 725 mmHg 71%
    04:00 +13°C° 0 mm 3 m/S 725 mmHg 69%
    05:00 +13°C° 0 mm 3 m/S 725 mmHg 70%
    06:00 +12°C° 0 mm 3 m/S 725 mmHg 71%
    07:00 +12°C° 0 mm 3 m/S 725 mmHg 71%
    08:00 +12°C° 0,9 mm 3 m/S 725 mmHg 76%
    09:00 +12°C° 0,9 mm 4 m/S 726 mmHg 81%
    10:00 +12°C° 0,9 mm 4 m/S 726 mmHg 85%
    11:00 +13°C° 0,6 mm 4 m/S 726 mmHg 85%
    12:00 +13°C° 0,6 mm 4 m/S 726 mmHg 85%
    13:00 +13°C° 0,6 mm 4 m/S 726 mmHg 85%
    14:00 +13°C° 0,2 mm 4 m/S 726 mmHg 82%
    15:00 +13°C° 0,2 mm 4 m/S 726 mmHg 79%
    16:00 +13°C° 0,2 mm 3 m/S 726 mmHg 77%
    17:00 +12°C° 0 mm 3 m/S 727 mmHg 80%
    18:00 +11°C° 0 mm 3 m/S 727 mmHg 82%
    19:00 +9°C° 0 mm 2 m/S 727 mmHg 85%
    20:00 +9°C° 0 mm 2 m/S 727 mmHg 86%
    21:00 +8°C° 0 mm 2 m/S 728 mmHg 88%
    22:00 +8°C° 0 mm 2 m/S 728 mmHg 89%
    23:00 +8°C° 0 mm 2 m/S 728 mmHg 89%

    übermorgen, 21 Oktober, Samstag

    Zeit Temperatur Niederschläge Wind Luftdruck Luftfeuchtigkeit
    00:00 +8°C° 0 mm 2 m/S 728 mmHg 89%
    01:00 +7°C° 0 mm 2 m/S 728 mmHg 89%
    02:00 +8°C° 0 mm 2 m/S 727 mmHg 87%
    03:00 +8°C° 0 mm 2 m/S 727 mmHg 85%
    04:00 +9°C° 0 mm 2 m/S 727 mmHg 83%
    05:00 +9°C° 0 mm 3 m/S 726 mmHg 86%
    06:00 +9°C° 0 mm 3 m/S 726 mmHg 89%
    07:00 +9°C° 0 mm 3 m/S 726 mmHg 92%
    08:00 +10°C° 0,2 mm 4 m/S 726 mmHg 91%
    09:00 +11°C° 0,2 mm 4 m/S 726 mmHg 89%
    10:00 +12°C° 0,2 mm 4 m/S 726 mmHg 87%
    11:00 +13°C° 0,3 mm 4 m/S 726 mmHg 88%
    12:00 +13°C° 0,3 mm 4 m/S 726 mmHg 88%
    13:00 +13°C° 0,3 mm 4 m/S 726 mmHg 89%
    14:00 +13°C° 0 mm 4 m/S 725 mmHg 88%
    15:00 +13°C° 0 mm 4 m/S 725 mmHg 86%
    16:00 +14°C° 0 mm 4 m/S 725 mmHg 85%
    17:00 +13°C° 0,1 mm 4 m/S 726 mmHg 86%
    18:00 +12°C° 0,1 mm 4 m/S 726 mmHg 88%
    19:00 +11°C° 0,1 mm 4 m/S 726 mmHg 89%
    20:00 +10°C° 0,1 mm 4 m/S 726 mmHg 88%
    21:00 +10°C° 0,1 mm 4 m/S 726 mmHg 87%
    22:00 +8°C° 0,1 mm 4 m/S 727 mmHg 87%
    23:00 +8°C° 0 mm 4 m/S 726 mmHg 87%

    22 Oktober, Sonntag

    Zeit Temperatur Niederschläge Wind Luftdruck Luftfeuchtigkeit
    00:00 +8°C° 0 mm 4 m/S 726 mmHg 87%
    01:00 +7°C° 0 mm 4 m/S 726 mmHg 86%
    02:00 +7°C° 0 mm 4 m/S 726 mmHg 86%
    03:00 +6°C° 0 mm 4 m/S 726 mmHg 86%
    04:00 +6°C° 0 mm 5 m/S 726 mmHg 87%
    05:00 +6°C° 0 mm 4 m/S 726 mmHg 86%
    06:00 +6°C° 0 mm 4 m/S 726 mmHg 85%
    07:00 +6°C° 0 mm 4 m/S 726 mmHg 85%
    08:00 +7°C° 0 mm 5 m/S 726 mmHg 81%
    09:00 +7°C° 0 mm 5 m/S 726 mmHg 78%
    10:00 +8°C° 0 mm 6 m/S 726 mmHg 75%
    11:00 +8°C° 0 mm 5 m/S 726 mmHg 74%
    12:00 +8°C° 0 mm 5 m/S 726 mmHg 73%
    13:00 +8°C° 0 mm 5 m/S 726 mmHg 73%
    14:00 +8°C° 0 mm 5 m/S 726 mmHg 74%
    15:00 +8°C° 0 mm 5 m/S 726 mmHg 75%
    16:00 +8°C° 0 mm 5 m/S 726 mmHg 76%
    17:00 +7°C° 0,1 mm 5 m/S 726 mmHg 79%
    18:00 +7°C° 0,1 mm 5 m/S 726 mmHg 82%
    19:00 +7°C° 0,1 mm 4 m/S 727 mmHg 85%
    20:00 +6°C° 0,2 mm 4 m/S 727 mmHg 86%
    21:00 +6°C° 0,2 mm 4 m/S 727 mmHg 88%
    22:00 +6°C° 0,2 mm 4 m/S 727 mmHg 89%
    23:00 +6°C° 0,2 mm 4 m/S 728 mmHg 90%

    23 Oktober, Montag

    Zeit Temperatur Niederschläge Wind Luftdruck Luftfeuchtigkeit
    00:00 +6°C° 0,2 mm 4 m/S 728 mmHg 91%
    01:00 +6°C° 0,2 mm 4 m/S 728 mmHg 92%
    02:00 +6°C° 0,1 mm 4 m/S 728 mmHg 92%
    03:00 +6°C° 0,1 mm 4 m/S 729 mmHg 92%
    04:00 +6°C° 0,1 mm 4 m/S 729 mmHg 93%
    05:00 +6°C° 0,1 mm 4 m/S 729 mmHg 93%
    06:00 +6°C° 0,1 mm 4 m/S 730 mmHg 93%
    07:00 +6°C° 0,1 mm 4 m/S 730 mmHg 93%
    08:00 +7°C° 0,2 mm 4 m/S 731 mmHg 91%
    09:00 +7°C° 0,2 mm 4 m/S 731 mmHg 89%
    10:00 +8°C° 0,2 mm 4 m/S 731 mmHg 87%
    11:00 +8°C° 0,1 mm 4 m/S 732 mmHg 84%
    12:00 +10°C° 0,1 mm 4 m/S 732 mmHg 82%
    13:00 +10°C° 0,1 mm 4 m/S 732 mmHg 79%
    14:00 +10°C° 0,2 mm 4 m/S 732 mmHg 82%
    15:00 +10°C° 0,2 mm 3 m/S 732 mmHg 85%
    16:00 +9°C° 0,2 mm 3 m/S 732 mmHg 87%
    17:00 +9°C° 0,2 mm 3 m/S 732 mmHg 89%
    18:00 +9°C° 0,2 mm 3 m/S 733 mmHg 91%
    19:00 +9°C° 0,2 mm 3 m/S 733 mmHg 93%
    20:00 +9°C° 0,1 mm 3 m/S 733 mmHg 93%
    21:00 +9°C° 0,1 mm 2 m/S 733 mmHg 94%
    22:00 +9°C° 0,1 mm 2 m/S 733 mmHg 94%
    23:00 +9°C° 0,1 mm 2 m/S 733 mmHg 95%

    24 Oktober, Dienstag

    Zeit Temperatur Niederschläge Wind Luftdruck Luftfeuchtigkeit
    00:00 +10°C° 0,1 mm 2 m/S 733 mmHg 95%
    01:00 +10°C° 0,1 mm 2 m/S 733 mmHg 96%
    02:00 +10°C° 0,1 mm 2 m/S 733 mmHg 96%
    03:00 +10°C° 0,1 mm 2 m/S 733 mmHg 96%
    04:00 +10°C° 0,1 mm 2 m/S 733 mmHg 96%
    05:00 +10°C° 0 mm 2 m/S 733 mmHg 96%
    06:00 +10°C° 0 mm 2 m/S 734 mmHg 97%
    07:00 +10°C° 0 mm 2 m/S 734 mmHg 97%
    08:00 +10°C° 0,1 mm 2 m/S 734 mmHg 96%
    09:00 +12°C° 0,1 mm 2 m/S 734 mmHg 95%
    10:00 +12°C° 0,1 mm 2 m/S 735 mmHg 94%
    11:00 +13°C° 0 mm 2 m/S 735 mmHg 92%
    12:00 +13°C° 0 mm 2 m/S 735 mmHg 91%
    13:00 +14°C° 0 mm 2 m/S 735 mmHg 89%
    14:00 +14°C° 0 mm 2 m/S 735 mmHg 89%
    15:00 +14°C° 0 mm 2 m/S 735 mmHg 90%
    16:00 +14°C° 0 mm 1 m/S 735 mmHg 90%
    17:00 +14°C° 0 mm 1 m/S 735 mmHg 92%
    18:00 +13°C° 0 mm 1 m/S 735 mmHg 93%
    19:00 +12°C° 0 mm 1 m/S 736 mmHg 95%
    20:00 +12°C° 0 mm 2 m/S 736 mmHg 95%
    21:00 +12°C° 0 mm 2 m/S 736 mmHg 95%
    22:00 +12°C° 0 mm 2 m/S 736 mmHg 95%
    23:00 +10°C° 0 mm 2 m/S 736 mmHg 95%
    Mehr zeigen